Regional Weather Roundup
Issued by NWS

Home | Current Version | Previous Version | Text Only | Print | Product List | Glossary Off
Versions: 1 2 3 4 5 6 7 8 9 10 11 12 13 14 15 16 17 18 19 20 21 22 23 24 25 26 27 28 29 30 31 32 33 34 35 36 37 38 39 40 41 42 43 44 45 46 47 48 49 50

000
ASUS43 KOAX 031102
RWRNE
WEATHER ROUNDUP FOR NEBRASKA
NATIONAL WEATHER SERVICE OMAHA NE
600 AM CDT WED JUN 03 2015

NOTES: SATELLITE DATA IS BEING USED TO AUGMENT CLOUD COVER ABOVE
       12000 FEET.
       "FAIR" INDICATES FEW OR NO CLOUDS BELOW 12,000 FEET WITH NO
       SIGNIFICANT WEATHER AND/OR OBSTRUCTIONS TO VISIBILITY.

  * THESE STATIONS DO NOT REPORT WEATHER SUCH AS RAIN...SNOW OR FOG.

NEZ001>004-019>022-054>056-031200-
NEBRASKA PANHANDLE

CITY           SKY/WX    TMP DP  RH WIND       PRES   REMARKS
SCOTTSBLUFF    CLEAR     55  52  89 NE5       29.98R
ALLIANCE       CLEAR     52  50  93 N6        29.95R
CHADRON        CLOUDY    52  50  93 SW6       29.96R
KIMBALL          N/A    N/A N/A N/A MISG        N/A
SIDNEY         CLEAR     56  52  86 NE8       29.95R
$$

NEZ057>060-069>072-079>082-031200-
SOUTHWEST NEBRASKA

CITY           SKY/WX    TMP DP  RH WIND       PRES   REMARKS
NORTH PLATTE   CLOUDY    62  55  77 W5        29.90R
IMPERIAL       PTCLDY    60  53  77 E14       29.87R
LEXINGTON      LGT RAIN  60  58  91 SE13      29.89F
MCCOOK         CLOUDY    65  55  70 E20       29.86S
$$

NEZ005>010-023>029-035>040-094-031200-
NORTH CENTRAL NEBRASKA

CITY           SKY/WX    TMP DP  RH WIND       PRES   REMARKS
VALENTINE      CLOUDY    58  53  84 SW6       29.88S
AINSWORTH      CLOUDY    60  58  94 CALM      29.87F
BROKEN BOW     LGT RAIN  61  58  90 SE20      29.87F
O`NEILL        CLOUDY    62  60  95 SW3       29.86R
ORD            LGT RAIN  61  58  90 S14       29.86F
$$

NEZ041-046>049-061>064-073>077-083>087-031200-
SOUTH CENTRAL NEBRASKA

CITY           SKY/WX    TMP DP  RH WIND       PRES   REMARKS
GRAND ISLAND   LGT RAIN  61  59  93 S3        29.97R
AURORA         RAIN      61  61 100 CALM      29.96R
HASTINGS       TSTM      61  59  93 N10       29.97R FOG
KEARNEY *      CLOUDY    61  55  82 NE13      29.96R THUNDER
$$

NEZ011>018-030>034-042>045-031200-
NORTHEAST NEBRASKA

CITY           SKY/WX    TMP DP  RH WIND       PRES   REMARKS
NORFOLK        CLOUDY    64  59  83 W17G25    29.90R
COLUMBUS *     CLOUDY    63  55  77 SW3       29.87R
FREMONT        RAIN      64  62  94 SE7       29.84F
TEKAMAH        LGT RAIN  64  62  93 SE18      29.80F
$$

NEZ050>053-065>068-078-088>093-031200-
SOUTHEAST NEBRASKA

CITY           SKY/WX    TMP DP  RH WIND       PRES   REMARKS
LINCOLN        TSTM      63  61  93 SE8       29.89F FOG
OMAHA EPPLEY   RAIN      65  63  93 SE6       29.89S
BEATRICE       TSTM      63  61  94 E6        29.93R
FALLS CITY     CLOUDY    66  61  84 NW16      29.93R
NEBRASKA CITY  CLOUDY    64  63  96 SE7       29.88F
PLATTSMOUTH    RAIN      64  60  89 E7        29.90S
$$

NEZ044-045-051>053-067-031200-
OMAHA AREA

CITY           SKY/WX    TMP DP  RH WIND       PRES   REMARKS
OMAHA EPPLEY   RAIN      65  63  93 SE6       29.89S
FREMONT        RAIN      64  62  94 SE7       29.84F
PLATTSMOUTH    RAIN      64  60  89 E7        29.90S
WAHOO          RAIN      63  61  93 E10       29.83F
$$



USA.gov is the U.S. government's official web portal to all federal, state and local government web resources and services.